IV3CGM-13 Weather Reports


time (UTC)temp
C
wind
direction
speed
KPH
gust
KPH
rain 1hr
cm
rain 24hr
cm
rain mn
cm
humidity
%
barometer
mb
20260507030500 11 318 3.2 4.8 0.00 0.00 0.00 99 1010.9
20260507025331 11 306 6.4 6.4 0.00 0.00 0.00 98 1010.9
20260507024115 11 306 3.2 6.4 0.00 0.00 0.00 99 1010.8
20260507022933 11 306 4.8 4.8 0.00 0.00 0.00 99 1010.9
20260507021805 12 314 6.4 6.4 0.00 0.00 0.00 99 1010.8
20260507020638 12 301 6.4 9.7 0.00 0.00 0.00 97 1010.9
20260507015510 12 318 6.4 6.4 0.00 0.00 0.00 98 1010.8
20260507014254 12 341 8.0 8.0 0.00 0.00 0.00 98 1010.9
20260507013112 12 322 6.4 8.0 0.00 0.00 0.00 97 1010.9
20260507011945 12 318 3.2 6.4 0.00 0.00 0.00 99 1010.8
20260507010817 12 306 4.8 6.4 0.00 0.00 0.00 99 1010.9
20260507005650 12 303 3.2 8.0 0.00 0.00 0.00 99 1010.9
20260507004433 12 300 3.2 4.8 0.00 0.00 0.00 99 1010.9
20260507003252 12 300 3.2 6.4 0.00 0.00 0.00 99 1010.9
20260507002125 12 318 4.8 4.8 0.00 0.00 0.00 99 1010.9
20260507000957 12 321 3.2 6.4 0.00 0.00 0.00 99 1011.0
20260506235830 12 318 3.2 6.4 0.00 0.00 0.00 99 1011.0
20260506234613 12 306 4.8 4.8 0.08 0.00 0.00 99 1011.0
20260506233433 12 306 4.8 4.8 0.08 0.00 0.00 99 1011.0
20260506232306 12 306 3.2 3.2 0.08 0.00 0.00 99 1011.1
20260506231137 12 306 3.2 4.8 0.13 0.00 0.00 99 1011.2
20260506230009 12 306 4.8 4.8 0.43 0.00 0.00 99 1011.2
20260506224753 12 306 3.2 6.4 0.99 0.00 5.77 99 1011.2
20260506223612 12 300 4.8 6.4 1.04 0.00 5.77 99 1011.2
20260506222444 12 300 4.8 4.8 1.04 0.00 5.77 99 1011.1
20260506221317 12 313 4.8 6.4 1.04 0.00 5.77 99 1011.1
20260506220149 12 313 6.4 6.4 0.71 0.00 5.46 99 1011.2
20260506214932 12 314 3.2 3.2 0.13 0.00 4.88 99 1011.1
20260506213752 12 311 3.2 8.0 0.00 0.00 4.75 98 1011.0
20260506212624 12 12 3.2 6.4 0.00 0.00 4.75 99 1011.0
20260506211457 12 264 3.2 3.2 0.00 0.00 4.75 99 1011.1
20260506210330 12 264 3.2 3.2 0.00 0.00 4.75 99 1011.1
20260506205113 12 264 3.2 4.8 0.00 0.00 4.75 99 1010.9
20260506203932 12 246 3.2 4.8 0.00 0.00 4.75 99 1011.0
20260506202804 12 96 3.2 8.0 0.00 0.00 4.75 99 1010.9
20260506201637 12 246 6.4 6.4 0.00 0.00 4.75 99 1010.8
20260506200509 12 291 4.8 6.4 0.00 0.00 4.75 99 1010.8
20260506195253 12 291 3.2 3.2 0.00 0.00 4.75 99 1010.7
20260506194112 12 291 3.2 4.8 0.00 0.00 4.75 99 1010.4
20260506192944 12 291 4.8 4.8 0.00 0.00 4.75 99 1010.3
20260506191817 12 291 3.2 3.2 0.00 0.00 4.75 99 1010.3
20260506190649 12 291 3.2 3.2 0.05 0.00 4.75 99 1010.3
20260506185433 12 290 3.2 3.2 0.05 0.00 4.75 99 1010.3
20260506184252 13 290 3.2 3.2 0.05 0.00 4.75 99 1010.2
20260506183124 13 278 3.2 4.8 0.05 0.00 4.75 99 1010.1
20260506181957 13 278 3.2 3.2 0.05 0.00 4.75 99 1010.1
20260506180829 13 278 3.2 3.2 0.00 0.00 4.72 99 1010.1
20260506175613 13 278 0.0 3.2 0.00 0.00 4.72 99 1010.1
20260506174431 13 278 3.2 3.2 0.00 0.00 4.72 99 1009.9
20260506173304 13 96 0.0 3.2 0.05 0.00 4.72 99 1009.8
20260506172137 13 96 3.2 3.2 0.05 0.00 4.72 99 1009.7
20260506171009 12 96 3.2 3.2 0.13 0.00 4.72 99 1009.6
20260506165752 13 96 4.8 4.8 0.20 0.00 4.72 99 1009.6
20260506164612 12 102 3.2 3.2 0.41 0.00 4.72 99 1009.6
20260506163444 12 102 0.0 3.2 0.69 0.00 4.72 99 1009.6
20260506162317 12 102 0.0 3.2 0.91 0.00 4.72 99 1009.4
20260506161149 12 102 0.0 6.4 1.04 0.00 4.67 99 1009.7
20260506155932 12 102 3.2 6.4 0.99 0.00 4.60 99 1009.6
20260506154752 13 24 3.2 3.2 0.84 0.00 4.45 99 1009.6
20260506153624 13 24 3.2 3.2 0.48 0.00 4.09 99 1009.6
20260506152457 13 315 0.0 3.2 0.36 0.00 3.91 99 1009.7
20260506151329 13 234 0.0 3.2 0.36 0.00 3.81 99 1009.7
20260506150113 13 234 0.0 3.2 0.33 0.00 3.63 99 1009.7
20260506144931 13 234 0.0 4.8 0.33 0.00 3.63 99 1009.8
20260506143804 13 234 3.2 8.0 0.33 0.00 3.63 99 1009.9
20260506142637 13 174 6.4 6.4 0.23 0.00 3.56 99 1010.0
20260506141509 13 90 4.8 8.0 0.23 0.00 3.48 99 1010.0
20260506140252 13 115 3.2 6.4 0.20 0.00 3.40 98 1010.2
20260506135112 13 54 0.0 4.8 0.20 0.00 3.33 98 1010.1
20260506133944 13 12 3.2 6.4 0.33 0.00 3.33 98 1010.2
20260506132817 13 303 3.2 6.4 0.43 0.00 3.33 97 1010.3
20260506131650 13 246 3.2 3.2 0.76 0.00 3.33 99 1010.5
20260506130433 13 210 3.2 6.4 0.97 0.00 3.33 99 1010.7
20260506125257 13 114 3.2 6.4 0.97 0.00 3.20 99 1010.7
20260506124112 13 318 3.2 6.4 0.97 0.00 3.12 99 1010.6
20260506122945 12 66 3.2 3.2 0.91 0.00 3.00 99 1010.5
20260506121817 12 78 0.0 3.2 0.89 0.00 2.59 99 1010.5
20260506120600 12 84 3.2 4.8 1.17 0.00 2.44 99 1010.5
20260506115419 12 72 3.2 3.2 1.27 0.00 2.29 99 1010.6
20260506114251 12 72 0.0 4.8 1.32 0.00 2.24 99 1010.6
20260506113124 12 48 3.2 8.0 1.32 0.00 2.21 99 1010.5
20260506111957 12 24 3.2 8.0 0.97 0.00 1.83 98 1010.4
20260506110740 13 270 4.8 9.7 0.56 0.00 1.40 98 1010.6
20260506105559 13 318 3.2 11.3 0.20 0.00 1.04 97 1010.7
20260506104431 13 156 9.7 11.3 0.13 0.00 0.91 99 1010.8
20260506103304 13 132 8.0 12.9 0.13 0.00 0.89 99 1010.7
20260506102136 14 132 6.4 11.3 0.15 0.00 0.89 99 1010.6
20260506101008 13 108 6.4 9.7 0.13 0.00 0.84 99 1010.8
20260506095841 13 78 8.0 11.3 0.13 0.00 0.84 99 1010.9
20260506094727 13 126 4.8 12.9 0.13 0.00 0.79 99 1011.0
20260506093546 13 126 6.4 14.5 0.08 0.00 0.76 99 1011.0
20260506092418 13 126 8.0 11.3 0.13 0.00 0.71 99 1011.1
20260506091250 13 108 3.2 9.7 0.36 0.00 0.71 99 1011.0
20260506090123 13 132 8.0 8.0 0.64 0.00 0.71 99 1010.9
20260506084906 13 90 3.2 6.4 0.69 0.00 0.69 99 1010.7
20260506083725 13 90 0.0 3.2 0.69 0.00 0.69 99 1010.8
20260506082545 13 90 0.0 11.3 0.61 0.00 0.61 99 1010.7
20260506081418 13 348 3.2 9.7 0.43 0.00 0.43 99 1010.6
20260506080258 13 342 3.2 4.8 0.13 0.00 0.13 99 1010.7
20260506072725 12 306 6.4 6.4 0.05 0.00 0.05 99 1010.8
20260506071558 12 306 0.0 0.0 0.05 0.00 0.05 99 1010.8
20260506070431 12 306 3.2 4.8 0.00 0.00 0.00 99 1010.8
20260506061737 13 138 0.0 3.2 0.00 0.00 0.00 96 1011.2
20260506060610 12 126 4.8 4.8 0.00 0.00 0.00 97 1011.0
20260506050725 12 330 3.2 11.3 0.00 0.00 0.00 93 1010.9
20260506044327 12 300 4.8 11.3 0.00 0.00 0.00 93 1010.9
20260506043158 11 310 4.8 4.8 0.00 0.00 0.00 99 1010.9
20260506042031 11 306 3.2 4.8 0.00 0.00 0.00 99 1011.2
20260506040904 11 306 4.8 4.8 0.00 0.00 0.00 99 1011.3
20260506035647 11 306 0.0 3.2 0.00 0.00 0.00 99 1011.4
20260506034506 11 306 4.8 6.4 0.00 0.00 0.00 99 1011.4
20260506033338 11 294 3.2 6.4 0.00 0.00 0.00 99 1011.5
20260506032209 11 306 6.4 8.0 0.00 0.00 0.00 99 1011.5